DW2659 Weather Reports


time (UTC)temp
C
wind
direction
speed
KPH
gust
KPH
rain 1hr
cm
rain 24hr
cm
rain mn
cm
humidity
%
barometer
mb
20260506051403 21 171 3.2 8.0 0.00 0.00 0.00 51 1011.8
20260506050903 21 225 3.2 8.0 0.00 0.00 0.00 51 1011.8
20260506050404 21 220 3.2 9.7 0.00 0.00 0.00 51 1011.8
20260506044903 21 173 1.6 4.8 0.00 0.00 0.00 51 1011.7
20260506044403 21 143 1.6 3.2 0.00 0.00 0.00 51 1011.7
20260506043403 21 215 3.2 4.8 0.00 0.00 0.00 50 1011.7
20260506042903 21 181 1.6 4.8 0.00 0.00 0.00 50 1011.7
20260506041403 21 217 1.6 4.8 0.00 0.00 0.00 50 1011.9
20260506040403 21 226 3.2 4.8 0.00 0.00 0.00 50 1011.9
20260506035902 21 215 3.2 4.8 0.00 0.00 0.00 49 1011.8
20260506034904 21 172 1.6 4.8 0.00 0.00 0.00 49 1011.8
20260506034402 21 232 3.2 4.8 0.00 0.00 0.00 49 1011.8
20260506033903 21 222 1.6 4.8 0.00 0.00 0.00 49 1011.8
20260506033404 21 234 3.2 4.8 0.00 0.00 0.00 48 1011.8
20260506032903 21 198 3.2 4.8 0.00 0.00 0.00 47 1011.6
20260506032403 21 191 3.2 8.0 0.00 0.00 0.00 47 1011.6
20260506031402 21 189 0.0 3.2 0.00 0.00 0.00 47 1012.0
20260506030903 21 199 1.6 4.8 0.00 0.00 0.00 47 1012.0
20260506030404 21 171 0.0 3.2 0.00 0.00 0.00 47 1012.0
20260506025903 21 119 1.6 4.8 0.00 0.00 0.00 46 1012.0
20260506025402 21 247 3.2 8.0 0.00 0.00 0.00 46 1012.1
20260506024903 21 200 3.2 8.0 0.00 0.00 0.00 46 1012.1
20260506023903 21 172 4.8 9.7 0.00 0.00 0.00 45 1011.9
20260506023403 21 222 3.2 4.8 0.00 0.00 0.00 45 1011.9
20260506022403 22 244 1.6 4.8 0.00 0.00 0.00 45 1011.9
20260506021904 22 235 3.2 8.0 0.00 0.00 0.00 44 1011.8
20260506021403 22 146 1.6 3.2 0.00 0.00 0.00 44 1011.7
20260506020903 22 144 3.2 8.0 0.00 0.00 0.00 44 1011.7
20260506015902 22 186 3.2 8.0 0.00 0.00 0.00 43 1011.6
20260506015403 22 157 3.2 4.8 0.00 0.00 0.00 43 1011.6
20260506014904 22 164 3.2 9.7 0.00 0.00 0.00 43 1011.6
20260506014403 22 218 4.8 9.7 0.00 0.00 0.00 42 1011.4
20260506013903 22 187 3.2 8.0 0.00 0.00 0.00 42 1011.4
20260506013403 22 223 3.2 11.3 0.00 0.00 0.00 42 1011.4
20260506012903 22 180 3.2 4.8 0.00 0.00 0.00 42 1011.5
20260506012402 22 167 1.6 4.8 0.00 0.00 0.00 42 1011.5
20260506010903 22 192 3.2 4.8 0.00 0.00 0.00 41 1011.3
20260506010404 22 193 3.2 9.7 0.00 0.00 0.00 41 1011.4
20260506005903 22 207 3.2 9.7 0.00 0.00 0.00 41 1011.4
20260506005403 22 248 1.6 8.0 0.00 0.00 0.00 41 1011.4
20260506004904 22 217 3.2 8.0 0.00 0.00 0.00 41 1011.4
20260506004403 22 172 3.2 9.7 0.00 0.00 0.00 41 1011.3
20260506002903 22 234 3.2 9.7 0.00 0.00 0.00 41 1011.3
20260506002403 22 219 4.8 8.0 0.00 0.00 0.00 41 1011.2
20260506001904 22 232 3.2 8.0 0.00 0.00 0.00 41 1011.2
20260506001403 22 203 3.2 8.0 0.00 0.00 0.00 41 1011.1
20260506000903 22 234 3.2 9.7 0.00 0.00 0.00 40 1011.1
20260506000404 22 240 3.2 8.0 0.00 0.00 0.00 40 1011.1
20260505235403 23 194 4.8 11.3 0.00 0.00 0.00 40 1011.4
20260505234904 23 207 4.8 9.7 0.00 0.00 0.00 40 1011.4
20260505234403 23 237 4.8 11.3 0.00 0.00 0.00 40 1011.4
20260505232903 23 236 6.4 16.1 0.00 0.00 0.00 38 1011.3
20260505232403 23 223 8.0 14.5 0.00 0.00 0.00 37 1011.3
20260505231904 23 229 8.0 16.1 0.00 0.00 0.00 38 1011.3
20260505231403 23 245 8.0 14.5 0.00 0.00 0.00 38 1011.3
20260505225402 23 242 4.8 14.5 0.00 0.00 0.00 37 1011.3
20260505224904 23 201 8.0 19.3 0.00 0.00 0.00 36 1011.3
20260505224403 23 143 9.7 14.5 0.00 0.00 0.00 36 1011.2
20260505223404 24 152 8.0 14.5 0.00 0.00 0.00 36 1011.3
20260505222902 23 169 4.8 12.9 0.00 0.00 0.00 35 1011.4
20260505222403 24 238 4.8 12.9 0.00 0.00 0.00 36 1011.4
20260505221904 24 201 3.2 11.3 0.00 0.00 0.00 36 1011.4
20260505221403 23 236 4.8 9.7 0.00 0.00 0.00 35 1011.4
20260505220903 23 187 4.8 11.3 0.00 0.00 0.00 36 1011.4
20260505214904 23 209 3.2 8.0 0.00 0.00 0.00 36 1012.0
20260505214403 24 234 3.2 11.3 0.00 0.00 0.00 36 1011.9
20260505213903 24 239 6.4 12.9 0.00 0.00 0.00 34 1011.9
20260505213404 24 207 4.8 9.7 0.00 0.00 0.00 35 1011.9
20260505212903 24 218 4.8 12.9 0.00 0.00 0.00 35 1011.9
20260505212403 24 236 3.2 4.8 0.00 0.00 0.00 34 1011.9
20260505211904 24 246 6.4 11.3 0.00 0.00 0.00 33 1011.9
20260505211403 24 250 4.8 4.8 0.00 0.00 0.00 32 1011.7
20260505210904 24 202 3.2 9.7 0.00 0.00 0.00 30 1011.7
20260505205404 25 226 8.0 19.3 0.00 0.00 0.00 27 1012.0
20260505204903 25 228 8.0 24.1 0.00 0.00 0.00 27 1012.0
20260505204403 25 251 4.8 12.9 0.00 0.00 0.00 27 1012.0
20260505203904 25 249 11.3 22.5 0.00 0.00 0.00 28 1012.0
20260505203403 25 229 4.8 14.5 0.00 0.00 0.00 32 1012.0
20260505202903 26 247 4.8 22.5 0.00 0.00 0.00 32 1012.3
20260505202404 26 119 6.4 22.5 0.00 0.00 0.00 30 1012.3
20260505201903 26 235 6.4 14.5 0.00 0.00 0.00 30 1012.3
20260505201403 26 186 11.3 19.3 0.00 0.00 0.00 30 1012.6
20260505200904 26 247 9.7 19.3 0.00 0.00 0.00 30 1012.6
20260505195903 26 221 8.0 16.1 0.00 0.00 0.00 27 1012.6
20260505195404 26 241 11.3 19.3 0.00 0.00 0.00 26 1012.6
20260505194903 26 233 8.0 22.5 0.00 0.00 0.00 27 1012.6
20260505194404 26 190 8.0 19.3 0.00 0.00 0.00 31 1012.6
20260505193906 26 228 9.7 19.3 0.00 0.00 0.00 30 1012.6
20260505193403 26 170 9.7 25.7 0.00 0.00 0.00 31 1012.6
20260505192904 26 222 9.7 14.5 0.00 0.00 0.00 34 1012.6
20260505192404 25 130 11.3 20.9 0.00 0.00 0.00 36 1012.6
20260505191903 25 224 9.7 19.3 0.00 0.00 0.00 35 1012.6
20260505191404 26 263 11.3 20.9 0.00 0.00 0.00 32 1012.9
20260505190903 26 255 11.3 20.9 0.00 0.00 0.00 33 1012.9
20260505190403 26 166 9.7 19.3 0.00 0.00 0.00 33 1012.9
20260505185904 26 214 9.7 20.9 0.00 0.00 0.00 34 1012.9
20260505184903 25 161 9.7 20.9 0.00 0.00 0.00 38 1013.2
20260505184404 25 266 8.0 19.3 0.00 0.00 0.00 38 1013.4
20260505183904 25 190 9.7 19.3 0.00 0.00 0.00 39 1013.4
20260505183403 25 241 6.4 14.5 0.00 0.00 0.00 40 1013.5
20260505182904 25 229 9.7 19.3 0.00 0.00 0.00 40 1013.5
20260505182403 25 152 9.7 16.1 0.00 0.00 0.00 40 1013.5
20260505181903 24 218 9.7 20.9 0.00 0.00 0.00 39 1013.5
20260505180903 24 229 11.3 20.9 0.00 0.00 0.00 38 1013.5
20260505175904 25 167 11.3 22.5 0.00 0.00 0.00 36 1013.5
20260505175403 25 130 8.0 19.3 0.00 0.00 0.00 37 1013.8
20260505174903 25 160 9.7 19.3 0.00 0.00 0.00 37 1013.8
20260505174404 25 164 12.9 20.9 0.00 0.00 0.00 36 1014.1
20260505173903 25 155 11.3 22.5 0.00 0.00 0.00 38 1014.1
20260505173403 24 134 9.7 19.3 0.00 0.00 0.00 38 1014.1
20260505172904 24 208 8.0 16.1 0.00 0.00 0.00 39 1014.6
20260505172403 24 183 14.5 25.7 0.00 0.00 0.00 38 1014.6
20260505171904 24 220 9.7 19.3 0.00 0.00 0.00 41 1014.6
20260505170904 23 213 8.0 19.3 0.00 0.00 0.00 44 1014.6
20260505165404 23 258 8.0 19.3 0.00 0.00 0.00 43 1014.6
20260505164904 23 263 8.0 11.3 0.00 0.00 0.00 44 1014.6
20260505164404 23 226 3.2 9.7 0.00 0.00 0.00 46 1014.7
20260505163905 23 161 6.4 14.5 0.00 0.00 0.00 46 1014.7
20260505163404 23 258 6.4 11.3 0.00 0.00 0.00 45 1014.7
20260505162903 23 186 4.8 14.5 0.00 0.00 0.00 45 1014.4
20260505162404 23 137 4.8 11.3 0.00 0.00 0.00 45 1014.4
20260505161403 23 185 4.8 19.3 0.00 0.00 0.00 49 1014.6
20260505160404 23 98 4.8 14.5 0.00 0.00 0.00 52 1014.6
20260505152904 22 219 4.8 9.7 0.00 0.00 0.00 49 1015.1
20260505151904 21 239 3.2 8.0 0.00 0.00 0.00 52 1015.1
20260505151403 21 228 4.8 9.7 0.00 0.00 0.00 53 1015.1
20260505150904 20 259 3.2 16.1 0.00 0.00 0.00 53 1015.1
20260505150405 20 256 6.4 14.5 0.00 0.00 0.00 51 1015.1
20260505124904 13 175 3.2 4.8 0.00 0.00 0.00 70 1014.7
20260505123904 13 174 1.6 4.8 0.00 0.00 0.00 74 1014.5
20260505123403 12 142 0.0 0.0 0.00 0.00 0.00 76 1014.5
20260505122905 12 142 0.0 0.0 0.00 0.00 0.00 76 1014.5
20260505122403 12 142 0.0 1.6 0.00 0.00 0.00 76 1014.5
20260505121904 12 142 0.0 1.6 0.00 0.00 0.00 78 1014.5
20260505121405 11 142 0.0 0.0 0.00 0.00 0.00 80 1014.4
20260505120903 11 142 0.0 1.6 0.00 0.00 0.00 80 1014.4
20260505115905 11 142 0.0 1.6 0.00 0.00 0.00 82 1014.2
20260505115403 10 142 1.6 3.2 0.00 0.00 0.00 83 1014.2
20260505114405 10 142 0.0 1.6 0.00 0.00 0.00 84 1014.0
20260505113904 10 128 0.0 0.0 0.00 0.00 0.00 83 1014.0
20260505113404 10 128 0.0 1.6 0.00 0.00 0.00 84 1014.0
20260505112905 10 128 0.0 1.6 0.00 0.00 0.00 84 1014.0
20260505111904 9 128 0.0 0.0 0.00 0.00 0.00 83 1013.5
20260505111405 9 128 0.0 0.0 0.00 0.00 0.00 83 1013.5
20260505110904 9 128 0.0 0.0 0.00 0.00 0.00 83 1013.5
20260505110404 9 128 0.0 1.6 0.00 0.00 0.00 83 1013.5
20260505101904 9 204 0.0 3.2 0.00 0.00 0.00 83 1013.2
20260505101405 9 187 0.0 0.0 0.00 0.00 0.00 83 1013.2
20260505095905 9 187 0.0 0.0 0.00 0.00 0.00 83 1013.3
20260505095404 9 187 0.0 3.2 0.00 0.00 0.00 83 1013.3
20260505094904 9 125 0.0 1.6 0.00 0.00 0.00 84 1013.4
20260505094404 9 125 0.0 1.6 0.00 0.00 0.00 84 1013.4
20260505093904 9 125 1.6 3.2 0.00 0.00 0.00 84 1013.4
20260505091904 9 196 0.0 0.0 0.00 0.00 0.00 83 1013.4
20260505091405 9 196 0.0 0.0 0.00 0.00 0.00 83 1013.4
20260505090904 9 196 0.0 0.0 0.00 0.00 0.00 83 1013.4
20260505090404 9 196 0.0 0.0 0.00 0.00 0.00 83 1013.4
20260505085905 9 196 0.0 0.0 0.00 0.00 0.00 83 1013.1
20260505085403 9 196 0.0 0.0 0.00 0.00 0.00 83 1013.1
20260505084904 10 196 0.0 0.0 0.00 0.00 0.00 82 1013.1
20260505084405 10 196 0.0 0.0 0.00 0.00 0.00 82 1013.5
20260505083904 10 196 0.0 0.0 0.00 0.00 0.00 82 1013.5
20260505083404 10 196 0.0 0.0 0.00 0.00 0.00 82 1013.5
20260505082905 10 196 0.0 0.0 0.00 0.00 0.00 82 1013.5
20260505082404 10 196 0.0 0.0 0.00 0.00 0.00 82 1013.5
20260505081405 10 196 0.0 0.0 0.00 0.00 0.00 82 1013.4
20260505080904 10 196 0.0 0.0 0.00 0.00 0.00 81 1013.4
20260505080404 10 196 0.0 0.0 0.00 0.00 0.00 81 1013.4
20260505075905 10 196 0.0 0.0 0.00 0.00 0.00 81 1013.4
20260505075404 10 196 0.0 0.0 0.00 0.00 0.00 81 1013.4
20260505074904 10 196 0.0 0.0 0.00 0.00 0.00 81 1013.4
20260505074405 10 196 0.0 0.0 0.00 0.00 0.00 81 1013.4
20260505073903 10 196 0.0 0.0 0.00 0.00 0.00 81 1013.4
20260505073404 10 196 0.0 0.0 0.00 0.00 0.00 80 1013.4
20260505072905 11 196 0.0 1.6 0.00 0.00 0.00 80 1013.5
20260505072404 11 196 0.0 1.6 0.00 0.00 0.00 80 1013.5
20260505071903 11 196 0.0 0.0 0.00 0.00 0.00 80 1013.5
20260505070904 11 196 0.0 0.0 0.00 0.00 0.00 79 1013.4
20260505070404 11 196 0.0 0.0 0.00 0.00 0.00 79 1013.4
20260505065905 11 196 0.0 0.0 0.00 0.00 0.00 78 1013.4
20260505065404 11 196 0.0 0.0 0.00 0.00 0.00 78 1013.4
20260505064404 11 196 0.0 0.0 0.00 0.00 0.00 76 1013.4
20260505063904 11 196 0.0 0.0 0.00 0.00 0.00 76 1013.5
20260505063405 12 196 0.0 0.0 0.00 0.00 0.00 76 1013.5
20260505062904 12 196 0.0 0.0 0.00 0.00 0.00 76 1013.6
20260505062404 12 196 0.0 0.0 0.00 0.00 0.00 76 1013.5
20260505061905 12 196 0.0 0.0 0.00 0.00 0.00 75 1013.5
20260505061405 12 196 0.0 0.0 0.00 0.00 0.00 75 1013.5
20260505060904 12 196 0.0 0.0 0.00 0.00 0.00 74 1013.5
20260505060405 12 196 0.0 0.0 0.00 0.00 0.00 74 1013.5
20260505055904 12 196 0.0 0.0 0.00 0.00 0.00 74 1013.5
20260505054905 13 196 0.0 0.0 0.00 0.00 0.00 75 1013.5